Regional Weather Roundup
Issued by NWS

Home | Current Version | Previous Version | Graphics & Text | Print | Product List | Glossary Off
Versions: 1 2 3 4 5 6 7 8 9 10 11 12 13 14 15 16 17 18 19 20 21 22 23 24 25 26 27 28 29 30 31 32 33 34 35 36 37 38 39 40 41 42 43 44 45 46 47 48 49 50

000
ASUS43 KMKX 221300
RWRWI

WISCONSIN REGIONAL WEATHER ROUNDUP
NATIONAL WEATHER SERVICE MILWAUKEE/SULLIVAN WI
800 AM CDT TUE JUL 22 2014

NOTE: "FAIR" INDICATES FEW OR NO CLOUDS BELOW 12,000 FEET WITH NO
SIGNIFICANT WEATHER AND/OR OBSTRUCTIONS TO VISIBILITY.

WIZ001-002-006>008-014>016-023>028-221400-
NORTHWEST WISCONSIN

CITY           SKY/WX    TMP DP  RH WIND       PRES   REMARKS
SUPERIOR ARPT  CLOUDY    71  66  85 W9G16     29.80R
ASHLAND        MOSUNNY   73  66  78 W17G26    29.79R
HAYWARD        MOSUNNY   71  65  81 W9G16     29.86R
SIREN          CLOUDY    70  64  81 W10       29.88R
RICE LAKE      SUNNY     75  63  65 W13G20    29.89R
LADYSMITH      CLOUDY    78  73  86 SW10      29.86R
EAU CLAIRE     SUNNY     81  75  82 SW10      29.86R HX  87
MENOMONIE      SUNNY     81  74  79 SW12G18   29.87R HX  87
NEW RICHMOND   SUNNY     74  62  68 W12G22    29.91R
OSCEOLA        SUNNY     73  65  76 W8        29.93R
$$

WIZ003>005-009-010-017-018-221400-
NORTH CENTRAL WISCONSIN

CITY           SKY/WX    TMP DP  RH WIND       PRES   REMARKS
WOODRUFF       CLOUDY    74  72  91 S13       29.82F
RHINELANDER    CLOUDY    72  69  90 SW13      29.87R
EAGLE RIVER    CLOUDY    73  67  82 SW9G17    29.83S
LAND O LAKES   CLOUDY    73  70  91 SW10G20   29.82F FOG
PHILLIPS       CLOUDY    75  72  88 SW13G20   29.84R
TOMAHAWK       CLOUDY    73  69  86 S6        29.88R
MEDFORD        CLOUDY    73  69  90 SW10G18   29.89R
MERRILL        CLOUDY    74  70  87 SW12G17   29.87R
$$

WIZ029-030-035-036-043>047-221400-
CENTRAL WISCONSIN

CITY           SKY/WX    TMP DP  RH WIND       PRES   REMARKS
WAUSAU         CLOUDY    75  69  81 SW13      29.87R
MOSINEE        NOT AVBL
MARSHFIELD     CLOUDY    75  70  84 SW10      29.90R
STEVENS POINT  MOSUNNY   73  67  81 S9        29.89F
WAUPACA        MOSUNNY   78  69  74 SW12G17   29.89S HX  80
WAUTOMA        NOT AVBL
WISC RAPIDS    MOSUNNY   77  69  76 S12       29.91R
CAMP DOUGLAS   NOT AVBL
$$

WIZ011>013-019>022-031-037>040-048>050-221400-
NORTHEAST WISCONSIN

CITY           SKY/WX    TMP DP  RH WIND       PRES   REMARKS
ANTIGO         CLOUDY    71  68  91 S13G20    29.88S
STURGEON BAY   CLOUDY    70  64  83 S14       29.90F
GREEN BAY      PTSUNNY   76  68  76 S14G24    29.89F
MANITOWOC      NOT AVBL
APPLETON       PTSUNNY   73  66  78 SW12G25   29.91F
CLINTONVILLE   MOSUNNY   75  68  78 SW13      29.88S
OSHKOSH        PTSUNNY   76  68  76 S18G26    29.91F
$$

WIZ032>034-041-042-053>061-221400-
SOUTHWEST WISCONSIN

CITY           SKY/WX    TMP DP  RH WIND       PRES   REMARKS
LA CROSSE      CLOUDY    79  70  74 S8        29.89R HX  82
SPARTA         PTSUNNY   78  68  72 SW3       29.91R
VIROQUA        FAIR      76  69  79 SW12      29.93R
BOSCOBEL       SUNNY     80  69  69 S7        29.92R HX  83
PRAIRIE DU CHI SUNNY     78  66  67 S7        29.91R HX  80
PLATTEVILLE    FAIR      74  68  82 S10       29.96S
$$

WIZ056-057-062-063-064-067-068-221400-
SOUTH CENTRAL WISCONSIN

CITY           SKY/WX    TMP DP  RH WIND       PRES   REMARKS
BARABOO/DELLS  MOSUNNY   76  66  71 S14       29.92S
LONE ROCK      NOT AVBL
WATERTOWN      PTSUNNY   73  67  82 S9        29.96S
MADISON        PTSUNNY   76  67  73 S10       29.95S
MIDDLETON      PTSUNNY   76  66  71 S7        29.96F
MONROE         MOSUNNY   73  66  78 S14G22    29.98R
JANESVILLE     SUNNY     75  64  69 S13       29.97F
$$

WIZ051-052-058>065-066-070>072-221400-
SOUTHEAST WISCONSIN

CITY           SKY/WX    TMP DP  RH WIND       PRES   REMARKS
MILWAUKEE      MOSUNNY   75  65  70 S18       29.97F
WAUKESHA       MOSUNNY   72  64  78 S12       30.00F
MILWAUKEE/TIMM SUNNY     75  63  64 S12       29.98F
RACINE         SUNNY     75  65  70 SW13      30.00F
BURLINGTON     SUNNY     71  65  80 S13       29.99F
KENOSHA        SUNNY     75  66  73 S13       30.00F
FOND DU LAC    PTSUNNY   75  66  73 S18G28    29.93F
SHEBOYGAN      MOSUNNY   74  67  78 S12       29.96S
WEST BEND      PTSUNNY   73  63  68 SW9G17    29.98R
JUNEAU         PTSUNNY   73  52  48 S12       29.97S
$$

LSZ147-162-221400-
LAKE SUPERIOR

STATION/POSITION TIME  TEMP    WIND        PRES    WAVE
                       AIR SEA DIR/SP/G            HT/PER
                 (UTC) (F)     (DEG/KT/KT) (MB)    (FT/S)
W MID LAKE BUOY  1150   55 39  220/  4/  6 1006.1R   2/ 3
PORT WING        1200   70     240/ 11/ 16 1007.8R
SAXON HARBOR     1200          280/ 10/ 17 1006.8R
$$

LMZ867-665-643>646-221400-
LAKE MICHIGAN

STATION/POSITION TIME  TEMP    WIND        PRES    WAVE
                       AIR SEA DIR/SP/G            HT/PER
                 (UTC) (F)     (DEG/KT/KT) (MB)    (FT/S)
N MID LAKE BUOY  1150   62 57  190/ 16/ 17 1012.5F   3/ 4
NORTHPORT PIER   1220   67     170/  9/ 22 1012.9F
KEWAUNEE LAKESHO 1200   58     180/ 13/ 14 1014.3F
SHEBOYGAN LAKESH 1200   67     180/ 20/ 21 1014.2F
PORT WASHINGTON  1240   62     190/  9/ 13 1015.2F
ATWATER BUOY     1200   56     190/  6     1016.5F
MILWAUKEE LAKESH 1200   66     160/ 10/ 12   N/A
S MID LAKE BUOY  1150   70 68  180/ 12/ 14 1017.4S   1/ 3
KENOSHA   LAKESH 1200   63     180/ 13/ 15   N/A
$$

TC  - TEMPERATURE IN CELSIUS
VSB - VISIBILITY IN STATUTE MILES
WCI - WIND CHILL INDEX
HX  - HEAT INDEX



USA.gov is the U.S. government's official web portal to all federal, state and local government web resources and services.